Retour au catalogue

COSMOS 2235

GLONASS

ActifNavigationMEO
NORAD 22514·PAYLOAD·🇷🇺 Russia

Lancé Feb 17, 1993 depuis Baikonur Cosmodrome

Loading…

Prochains Passages (prochaines 24 heures)

TLE

FraisSource: Space-Track

Époque: Sep 14, 2026, 03:57 UTC

1 22514U 93010C   26257.16503323 -.00000014  00000-0  00000-0 0  9998
2 22514  64.9716  67.2611 0008246 205.5198 336.3368  2.13102542261182

Suivez COSMOS 2235 en temps réel avec AllMySat

Download on the App Store